,,,PA_Meas_PMT16A,,PR_Meas_QMR101_102,,RH_Meas_QMH101,,SR_Meas_QMS101,,TA_Meas_QMH101,,GenWind,,GenWind,
date,time,status,PA,status,PR,status,RH,status,SR,status,TA,status,DirAvg,status,SpdAvg,
2008-12-22, 00:00:04,VALID,1007.94,VALID,0,VALID,93.1638,VALID,0,VALID,24.6684,VALID,2,VALID,0,
2008-12-22, 00:01:04,VALID,1007.93,VALID,0,VALID,93.2706,VALID,0,VALID,24.6294,VALID,2,VALID,0,
2008-12-22, 00:02:04,VALID,1007.94,VALID,0,VALID,93.3621,VALID,0,VALID,24.6294,VALID,2,VALID,0,
2008-12-22, 00:03:04,VALID,1007.89,VALID,0,VALID,93.4765,VALID,0,VALID,24.5905,VALID,2,VALID,0,
2008-12-22, 00:04:04,VALID,1007.88,VALID,0,VALID,93.5604,VALID,0,VALID,24.571,VALID,6,VALID,0,
2008-12-22, 00:05:04,VALID,1007.9,VALID,0,VALID,93.629,VALID,0,VALID,24.5515,VALID,17,VALID,0,
2008-12-22, 00:06:04,VALID,1007.88,VALID,0,VALID,93.6976,VALID,0,VALID,24.5515,VALID,17,VALID,0,
2008-12-22, 00:07:04,VALID,1007.87,VALID,0,VALID,93.7586,VALID,0,VALID,24.532,VALID,17,VALID,0,
2008-12-22, 00:08:04,VALID,1007.86,VALID,0,VALID,93.8196,VALID,0,VALID,24.5125,VALID,19,VALID,0,
2008-12-22, 00:09:04,VALID,1007.85,VALID,0,VALID,93.8807,VALID,0,VALID,24.493,VALID,19,VALID,0,
2008-12-22, 00:10:04,VALID,1007.84,VALID,0,VALID,93.9112,VALID,0,VALID,24.4717,VALID,19,VALID,0,
2008-12-22, 00:11:04,VALID,1007.84,VALID,0,VALID,93.9569,VALID,0.105969,VALID,24.4522,VALID,19,VALID,0,
2008-12-22, 00:12:04,VALID,1007.84,VALID,0,VALID,93.995,VALID,0.105969,VALID,24.4522,VALID,19,VALID,0,
2008-12-22, 00:13:04,VALID,1007.84,VALID,0,VALID,94.0408,VALID,0,VALID,24.454,VALID,19,VALID,0,
2008-12-22, 00:14:04,VALID,1007.83,VALID,0,VALID,94.1018,VALID,0,VALID,24.4735,VALID,19,VALID,0,
2008-12-22, 00:15:04,VALID,1007.81,VALID,0,VALID,94.0865,VALID,0.105969,VALID,24.4327,VALID,19,VALID,0,
2008-12-22, 00:16:04,VALID,1007.79,VALID,0,VALID,94.1552,VALID,0.105969,VALID,24.4522,VALID,19,VALID,0,
2008-12-22, 00:17:04,VALID,1007.84,VALID,0,VALID,94.2162,VALID,0,VALID,24.4522,VALID,19,VALID,0,
2008-12-22, 00:18:04,VALID,1007.82,VALID,0,VALID,94.2619,VALID,0.105969,VALID,24.4911,VALID,19,VALID,0,
2008-12-22, 00:19:04,VALID,1007.81,VALID,0,VALID,94.2772,VALID,0.105969,VALID,24.4911,VALID,19,VALID,0,
2008-12-22, 00:20:04,VALID,1007.83,VALID,0,VALID,94.2924,VALID,0,VALID,24.4911,VALID,19,VALID,0,
2008-12-22, 00:21:04,VALID,1007.83,VALID,0,VALID,94.3229,VALID,0,VALID,24.5106,VALID,19,VALID,0,
2008-12-22, 00:22:04,VALID,1007.84,VALID,0,VALID,94.3687,VALID,0,VALID,24.5106,VALID,19,VALID,0,
2008-12-22, 00:23:04,VALID,1007.85,VALID,0,VALID,94.3611,VALID,0.105969,VALID,24.532,VALID,19,VALID,0,
2008-12-22, 00:24:04,VALID,1007.88,VALID,0,VALID,94.3839,VALID,0,VALID,24.5106,VALID,19,VALID,0,
2008-12-22, 00:25:04,VALID,1007.86,VALID,0,VALID,94.3916,VALID,0,VALID,24.5125,VALID,19,VALID,0,
2008-12-22, 00:26:04,VALID,1007.86,VALID,0,VALID,94.3992,VALID,0,VALID,24.5338,VALID,19,VALID,0,
2008-12-22, 00:27:04,VALID,1007.86,VALID,0,VALID,94.3992,VALID,0,VALID,24.5125,VALID,19,VALID,0,
2008-12-22, 00:28:04,VALID,1007.85,VALID,0,VALID,94.3992,VALID,0,VALID,24.5125,VALID,19,VALID,0,
2008-12-22, 00:29:04,VALID,1007.83,VALID,0,VALID,94.4221,VALID,0,VALID,24.5125,VALID,19,VALID,0,
2008-12-22, 00:30:04,VALID,1007.85,VALID,0,VALID,94.4221,VALID,0,VALID,24.532,VALID,19,VALID,0,
2008-12-22, 00:31:04,VALID,1007.83,VALID,0,VALID,94.4373,VALID,0,VALID,24.532,VALID,19,VALID,0,
2008-12-22, 00:32:04,VALID,1007.82,VALID,0,VALID,94.4221,VALID,0,VALID,24.532,VALID,19,VALID,0,
2008-12-22, 00:33:04,VALID,1007.8,VALID,0,VALID,94.4297,VALID,0,VALID,24.532,VALID,19,VALID,0,
2008-12-22, 00:34:04,VALID,1007.82,VALID,0,VALID,94.4602,VALID,0,VALID,24.5125,VALID,19,VALID,0,
2008-12-22, 00:35:04,VALID,1007.78,VALID,0,VALID,94.445,VALID,0,VALID,24.532,VALID,19,VALID,0,
2008-12-22, 00:36:04,VALID,1007.8,VALID,0,VALID,94.4602,VALID,0,VALID,24.532,VALID,19,VALID,0,
2008-12-22, 00:37:04,VALID,1007.77,VALID,0,VALID,94.445,VALID,0,VALID,24.532,VALID,19,VALID,0,
2008-12-22, 00:38:04,VALID,1007.73,VALID,0,VALID,94.445,VALID,0,VALID,24.5515,VALID,19,VALID,0,
2008-12-22, 00:39:04,VALID,1007.75,VALID,0,VALID,94.4373,VALID,0,VALID,24.532,VALID,19,VALID,0,
2008-12-22, 00:40:04,VALID,1007.75,VALID,0,VALID,94.4221,VALID,0,VALID,24.532,VALID,19,VALID,0,
2008-12-22, 00:41:04,VALID,1007.69,VALID,0,VALID,94.4068,VALID,0,VALID,24.5125,VALID,19,VALID,0,
2008-12-22, 00:42:04,VALID,1007.68,VALID,0,VALID,94.4221,VALID,0,VALID,24.532,VALID,19,VALID,0,
2008-12-22, 00:43:04,VALID,1007.67,VALID,0,VALID,94.4068,VALID,0,VALID,24.532,VALID,19,VALID,0,
2008-12-22, 00:44:04,VALID,1007.63,VALID,0,VALID,94.3916,VALID,0,VALID,24.532,VALID,19,VALID,0,
2008-12-22, 00:45:04,VALID,1007.58,VALID,0,VALID,94.3763,VALID,0,VALID,24.532,VALID,19,VALID,0,
2008-12-22, 00:46:04,VALID,1007.58,VALID,0,VALID,94.3916,VALID,0,VALID,24.5533,VALID,19,VALID,0,
2008-12-22, 00:47:04,VALID,1007.56,VALID,0,VALID,94.3992,VALID,0,VALID,24.5515,VALID,19,VALID,0,
2008-12-22, 00:48:04,VALID,1007.52,VALID,0,VALID,94.4221,VALID,0,VALID,24.5515,VALID,19,VALID,0,
2008-12-22, 00:49:04,VALID,1007.53,VALID,0,VALID,94.4145,VALID,0,VALID,24.5515,VALID,19,VALID,0,
2008-12-22, 00:50:04,VALID,1007.52,VALID,0,VALID,94.4373,VALID,0,VALID,24.5515,VALID,19,VALID,0,
2008-12-22, 00:51:04,VALID,1007.5,VALID,0,VALID,94.445,VALID,0,VALID,24.5515,VALID,19,VALID,0,
2008-12-22, 00:52:04,VALID,1007.47,VALID,0,VALID,94.4373,VALID,0,VALID,24.5515,VALID,19,VALID,0,
2008-12-22, 00:53:04,VALID,1007.43,VALID,0,VALID,94.4526,VALID,0,VALID,24.532,VALID,19,VALID,0,
2008-12-22, 00:54:04,VALID,1007.37,VALID,0,VALID,94.4678,VALID,0,VALID,24.532,VALID,19,VALID,0,
2008-12-22, 00:55:04,VALID,1007.39,VALID,0,VALID,94.4755,VALID,0,VALID,24.5301,VALID,19,VALID,0,
2008-12-22, 00:56:04,VALID,1007.41,VALID,0,VALID,94.4983,VALID,0.105969,VALID,24.5301,VALID,19,VALID,0,
2008-12-22, 00:57:04,VALID,1007.45,VALID,0,VALID,94.4907,VALID,0.105969,VALID,24.5106,VALID,23,VALID,0,
2008-12-22, 00:58:04,VALID,1007.43,VALID,0,VALID,94.506,VALID,0,VALID,24.5125,VALID,24,VALID,0,
2008-12-22, 00:59:04,VALID,1007.44,VALID,0,VALID,94.4983,VALID,0.105969,VALID,24.5125,VALID,24,VALID,0,
2008-12-22, 01:00:04,VALID,1007.41,VALID,0,VALID,94.4983,VALID,0.105969,VALID,24.4911,VALID,24,VALID,0,
2008-12-22, 01:01:04,VALID,1007.37,VALID,0,VALID,94.5212,VALID,0,VALID,24.493,VALID,24,VALID,0,
2008-12-22, 01:02:04,VALID,1007.33,VALID,0,VALID,94.5212,VALID,0,VALID,24.4717,VALID,24,VALID,0,
2008-12-22, 01:03:04,VALID,1007.34,VALID,0,VALID,94.5365,VALID,0,VALID,24.4911,VALID,24,VALID,0,
2008-12-22, 01:04:04,VALID,1007.34,VALID,0,VALID,94.5136,VALID,0.105969,VALID,24.4717,VALID,24,VALID,0,
2008-12-22, 01:05:04,VALID,1007.3,VALID,0,VALID,94.5212,VALID,0,VALID,24.493,VALID,24,VALID,0,
2008-12-22, 01:06:04,VALID,1007.29,VALID,0,VALID,94.4983,VALID,0,VALID,24.4327,VALID,24,VALID,0,
2008-12-22, 01:07:04,VALID,1007.29,VALID,0,VALID,94.5212,VALID,0,VALID,24.4522,VALID,24,VALID,0,
2008-12-22, 01:08:04,VALID,1007.25,VALID,0,VALID,94.506,VALID,0,VALID,24.4327,VALID,24,VALID,0,
2008-12-22, 01:09:04,VALID,1007.23,VALID,0,VALID,94.5288,VALID,0.105969,VALID,24.4327,VALID,24,VALID,0,
2008-12-22, 01:10:04,VALID,1007.22,VALID,0,VALID,94.5136,VALID,0,VALID,24.454,VALID,24,VALID,0,
2008-12-22, 01:11:04,VALID,1007.23,VALID,0,VALID,94.5136,VALID,0,VALID,24.4132,VALID,24,VALID,0,
2008-12-22, 01:12:04,VALID,1007.2,VALID,0,VALID,94.4983,VALID,0,VALID,24.4345,VALID,24,VALID,0,
2008-12-22, 01:13:04,VALID,1007.22,VALID,0,VALID,94.4983,VALID,0,VALID,24.3742,VALID,24,VALID,0,
2008-12-22, 01:14:04,VALID,1007.2,VALID,0,VALID,94.4907,VALID,0,VALID,24.3547,VALID,24,VALID,0,
2008-12-22, 01:15:04,VALID,1007.21,VALID,0,VALID,94.4983,VALID,0,VALID,24.3742,VALID,24,VALID,0,
2008-12-22, 01:16:04,VALID,1007.19,VALID,0,VALID,94.506,VALID,0,VALID,24.3742,VALID,24,VALID,0,
2008-12-22, 01:17:04,VALID,1007.2,VALID,0,VALID,94.5441,VALID,0,VALID,24.3956,VALID,24,VALID,0,
2008-12-22, 01:18:04,VALID,1007.14,VALID,0,VALID,94.567,VALID,0,VALID,24.3956,VALID,24,VALID,0,
2008-12-22, 01:19:04,VALID,1007.15,VALID,0,VALID,94.5822,VALID,0,VALID,24.3937,VALID,24,VALID,0,
2008-12-22, 01:20:04,VALID,1007.13,VALID,0,VALID,94.6051,VALID,0,VALID,24.3742,VALID,24,VALID,0,
2008-12-22, 01:21:04,VALID,1007.1,VALID,0,VALID,94.6051,VALID,0,VALID,24.3937,VALID,24,VALID,0,
2008-12-22, 01:22:04,VALID,1007.11,VALID,0,VALID,94.6356,VALID,0,VALID,24.3937,VALID,24,VALID,0,
2008-12-22, 01:23:04,VALID,1007.09,VALID,0,VALID,94.6508,VALID,0,VALID,24.3937,VALID,24,VALID,0,
2008-12-22, 01:24:04,VALID,1007.09,VALID,0,VALID,94.6737,VALID,0,VALID,24.3937,VALID,24,VALID,0,
2008-12-22, 01:25:04,VALID,1007.09,VALID,0,VALID,94.6814,VALID,0,VALID,24.3956,VALID,24,VALID,0,
2008-12-22, 01:26:04,VALID,1007.07,VALID,0,VALID,94.6966,VALID,0,VALID,24.3956,VALID,24,VALID,0,
2008-12-22, 01:27:04,VALID,1007.1,VALID,0,VALID,94.7042,VALID,0,VALID,24.3974,VALID,24,VALID,0,
2008-12-22, 01:28:04,VALID,1007.06,VALID,0,VALID,94.689,VALID,0,VALID,24.3566,VALID,24,VALID,0,
2008-12-22, 01:29:04,VALID,1007.04,VALID,0,VALID,94.7195,VALID,0,VALID,24.3371,VALID,24,VALID,0,
2008-12-22, 01:30:04,VALID,1007.02,VALID,0,VALID,94.7195,VALID,0,VALID,24.3371,VALID,24,VALID,0,
2008-12-22, 01:31:04,VALID,1007.02,VALID,0,VALID,94.7195,VALID,0,VALID,24.3389,VALID,24,VALID,0,
2008-12-22, 01:32:04,VALID,1007.01,VALID,0,VALID,94.7195,VALID,0,VALID,24.3176,VALID,24,VALID,0,
2008-12-22, 01:33:04,VALID,1007.01,VALID,0,VALID,94.7119,VALID,0,VALID,24.2981,VALID,24,VALID,0,
2008-12-22, 01:34:04,VALID,1007.02,VALID,0,VALID,94.7424,VALID,0,VALID,24.3389,VALID,24,VALID,0,
2008-12-22, 01:35:04,VALID,1007.01,VALID,0,VALID,94.7347,VALID,0,VALID,24.3176,VALID,24,VALID,0,
2008-12-22, 01:36:04,VALID,1007.04,VALID,0,VALID,94.7119,VALID,0,VALID,24.2805,VALID,44,VALID,0.196875,
2008-12-22, 01:37:04,VALID,1007.03,VALID,0,VALID,94.7271,VALID,0,VALID,24.261,VALID,67,VALID,1.25,
2008-12-22, 01:38:04,VALID,1007.05,VALID,0,VALID,94.7271,VALID,0,VALID,24.2396,VALID,54,VALID,0.762109,
2008-12-22, 01:39:04,VALID,1007.02,VALID,0,VALID,94.7347,VALID,0,VALID,24.2007,VALID,16,VALID,0.610156,
2008-12-22, 01:40:04,VALID,1007.04,VALID,0,VALID,94.7119,VALID,0,VALID,24.2202,VALID,64,VALID,0.594922,
2008-12-22, 01:41:04,VALID,1007.03,VALID,0,VALID,94.7347,VALID,0,VALID,24.1988,VALID,79,VALID,0.51875,
2008-12-22, 01:42:04,VALID,1007.04,VALID,0,VALID,94.7119,VALID,0,VALID,24.1988,VALID,70,VALID,0.739844,
2008-12-22, 01:43:04,VALID,1007,VALID,0,VALID,94.7195,VALID,0,VALID,24.1599,VALID,71,VALID,0.825,
2008-12-22, 01:44:04,VALID,1007.01,VALID,0,VALID,94.7042,VALID,0,VALID,24.1599,VALID,91,VALID,0.620313,
2008-12-22, 01:45:04,VALID,1006.99,VALID,0,VALID,94.6966,VALID,0,VALID,24.1404,VALID,69,VALID,0.544531,
2008-12-22, 01:46:04,VALID,1006.97,VALID,0,VALID,94.7119,VALID,0,VALID,24.1404,VALID,70,VALID,0.5625,
2008-12-22, 01:47:04,VALID,1006.94,VALID,0,VALID,94.7195,VALID,0,VALID,24.1404,VALID,70,VALID,0.476563,
2008-12-22, 01:48:04,VALID,1006.92,VALID,0,VALID,94.7195,VALID,0,VALID,24.1209,VALID,70,VALID,0.105078,
2008-12-22, 01:49:04,VALID,1006.89,VALID,0,VALID,94.7195,VALID,0,VALID,24.1209,VALID,70,VALID,0.326562,
2008-12-22, 01:50:04,VALID,1006.9,VALID,0,VALID,94.7042,VALID,0,VALID,24.1209,VALID,70,VALID,0.299219,
2008-12-22, 01:51:04,VALID,1006.89,VALID,0,VALID,94.7042,VALID,0,VALID,24.1209,VALID,70,VALID,0.255078,
2008-12-22, 01:52:04,VALID,1006.86,VALID,0,VALID,94.7042,VALID,0,VALID,24.1209,VALID,70,VALID,0.152734,
2008-12-22, 01:53:04,VALID,1006.89,VALID,0,VALID,94.7042,VALID,0,VALID,24.1422,VALID,70,VALID,0,
2008-12-22, 01:54:04,VALID,1006.89,VALID,0,VALID,94.7347,VALID,0,VALID,24.1209,VALID,70,VALID,0,
2008-12-22, 01:55:04,VALID,1006.87,VALID,0,VALID,94.7271,VALID,0,VALID,24.1227,VALID,70,VALID,0,
2008-12-22, 01:56:04,VALID,1006.88,VALID,0,VALID,94.7271,VALID,0,VALID,24.1014,VALID,70,VALID,0,
2008-12-22, 01:57:04,VALID,1006.86,VALID,0,VALID,94.7271,VALID,0,VALID,24.1227,VALID,70,VALID,0,
2008-12-22, 01:58:04,VALID,1006.86,VALID,0,VALID,94.7424,VALID,0,VALID,24.1014,VALID,70,VALID,0,
2008-12-22, 01:59:04,VALID,1006.89,VALID,0,VALID,94.7576,VALID,0,VALID,24.1014,VALID,70,VALID,0,
2008-12-22, 02:00:04,VALID,1006.84,VALID,0,VALID,94.75,VALID,0,VALID,24.1617,VALID,70,VALID,0,
2008-12-22, 02:01:04,VALID,1006.86,VALID,0,VALID,94.7652,VALID,0.105969,VALID,24.1014,VALID,70,VALID,0,
2008-12-22, 02:02:04,VALID,1006.83,VALID,0,VALID,94.7881,VALID,0,VALID,24.1227,VALID,70,VALID,0,
2008-12-22, 02:03:04,VALID,1006.85,VALID,0,VALID,94.7729,VALID,0,VALID,24.1227,VALID,70,VALID,0,
2008-12-22, 02:04:04,VALID,1006.82,VALID,0,VALID,94.7805,VALID,0,VALID,24.0819,VALID,70,VALID,0,
2008-12-22, 02:05:04,VALID,1006.82,VALID,0,VALID,94.7805,VALID,0,VALID,24.0819,VALID,70,VALID,0,
2008-12-22, 02:06:04,VALID,1006.83,VALID,0,VALID,94.7957,VALID,0,VALID,24.0819,VALID,70,VALID,0,
2008-12-22, 02:07:04,VALID,1006.82,VALID,0,VALID,94.8186,VALID,0,VALID,24.0819,VALID,70,VALID,0,
2008-12-22, 02:08:04,VALID,1006.82,VALID,0,VALID,94.8186,VALID,0,VALID,24.1014,VALID,70,VALID,0,
2008-12-22, 02:09:04,VALID,1006.85,VALID,0,VALID,94.8415,VALID,0.105969,VALID,24.1209,VALID,70,VALID,0,
2008-12-22, 02:10:04,VALID,1006.86,VALID,0,VALID,94.8415,VALID,0.105969,VALID,24.1209,VALID,70,VALID,0,
2008-12-22, 02:11:04,VALID,1006.85,VALID,0,VALID,94.8339,VALID,0.105969,VALID,24.1209,VALID,70,VALID,0.110937,
2008-12-22, 02:12:04,VALID,1006.88,VALID,0,VALID,94.8568,VALID,0.105969,VALID,24.1404,VALID,70,VALID,0,
2008-12-22, 02:13:04,VALID,1006.88,VALID,0,VALID,94.872,VALID,0.105969,VALID,24.1404,VALID,70,VALID,0,
2008-12-22, 02:14:04,VALID,1006.89,VALID,0,VALID,94.872,VALID,0.105969,VALID,24.1599,VALID,62,VALID,0.0546875,
2008-12-22, 02:15:04,VALID,1006.89,VALID,0,VALID,94.872,VALID,0.105969,VALID,24.1793,VALID,295,VALID,0.337109,
2008-12-22, 02:16:04,VALID,1006.89,VALID,0,VALID,94.8873,VALID,0,VALID,24.1617,VALID,295,VALID,0.164063,
2008-12-22, 02:17:04,VALID,1006.85,VALID,0,VALID,94.872,VALID,0,VALID,24.1599,VALID,295,VALID,0,
2008-12-22, 02:18:04,VALID,1006.87,VALID,0,VALID,94.8796,VALID,0,VALID,24.1599,VALID,295,VALID,0,
2008-12-22, 02:19:04,VALID,1006.84,VALID,0,VALID,94.8873,VALID,0.105969,VALID,24.1793,VALID,295,VALID,0,
2008-12-22, 02:20:04,VALID,1006.85,VALID,0,VALID,94.872,VALID,0,VALID,24.1793,VALID,295,VALID,0,
2008-12-22, 02:21:04,VALID,1006.84,VALID,0,VALID,94.8873,VALID,0,VALID,24.1793,VALID,295,VALID,0,
2008-12-22, 02:22:04,VALID,1006.83,VALID,0,VALID,94.872,VALID,0,VALID,24.1793,VALID,295,VALID,0,
2008-12-22, 02:23:04,VALID,1006.84,VALID,0,VALID,94.8415,VALID,0,VALID,24.1599,VALID,295,VALID,0,
2008-12-22, 02:24:04,VALID,1006.83,VALID,0,VALID,94.8262,VALID,0,VALID,24.1812,VALID,295,VALID,0,
2008-12-22, 02:25:04,VALID,1006.81,VALID,0,VALID,94.8568,VALID,0.105969,VALID,24.1793,VALID,295,VALID,0,
2008-12-22, 02:26:04,VALID,1006.82,VALID,0,VALID,94.8415,VALID,0,VALID,24.1988,VALID,295,VALID,0,
2008-12-22, 02:27:04,VALID,1006.8,VALID,0,VALID,94.8415,VALID,0.105969,VALID,24.1599,VALID,295,VALID,0,
2008-12-22, 02:28:04,VALID,1006.81,VALID,0,VALID,94.8491,VALID,0,VALID,24.2007,VALID,295,VALID,0,
2008-12-22, 02:29:04,VALID,1006.8,VALID,0,VALID,94.8415,VALID,0,VALID,24.1404,VALID,295,VALID,0,
2008-12-22, 02:30:04,VALID,1006.8,VALID,0,VALID,94.8339,VALID,0,VALID,24.1599,VALID,295,VALID,0,
2008-12-22, 02:31:04,VALID,1006.78,VALID,0,VALID,94.8644,VALID,0,VALID,24.1793,VALID,295,VALID,0.170312,
2008-12-22, 02:32:04,VALID,1006.79,VALID,0,VALID,94.872,VALID,0,VALID,24.2007,VALID,295,VALID,0,
2008-12-22, 02:33:04,VALID,1006.83,VALID,0,VALID,94.8873,VALID,0,VALID,24.1599,VALID,295,VALID,0,
2008-12-22, 02:34:04,VALID,1006.83,VALID,0,VALID,94.8796,VALID,0,VALID,24.1793,VALID,295,VALID,0,
2008-12-22, 02:35:04,VALID,1006.86,VALID,0,VALID,94.8796,VALID,0,VALID,24.1793,VALID,295,VALID,0,
2008-12-22, 02:36:04,VALID,1006.88,VALID,0,VALID,94.8949,VALID,0,VALID,24.1793,VALID,295,VALID,0,
2008-12-22, 02:37:04,VALID,1006.87,VALID,0,VALID,94.9101,VALID,0,VALID,24.1988,VALID,295,VALID,0,
2008-12-22, 02:38:04,VALID,1006.88,VALID,0,VALID,94.8873,VALID,0,VALID,24.2202,VALID,295,VALID,0,
2008-12-22, 02:39:04,VALID,1006.87,VALID,0,VALID,94.9101,VALID,0,VALID,24.2202,VALID,295,VALID,0,
2008-12-22, 02:40:04,VALID,1006.87,VALID,0,VALID,94.9101,VALID,0,VALID,24.2202,VALID,295,VALID,0,
2008-12-22, 02:41:04,VALID,1006.85,VALID,0,VALID,94.9254,VALID,0,VALID,24.2007,VALID,295,VALID,0,
2008-12-22, 02:42:04,VALID,1006.85,VALID,0,VALID,94.9254,VALID,0,VALID,24.2007,VALID,295,VALID,0,
2008-12-22, 02:43:04,VALID,1006.91,VALID,0,VALID,94.9025,VALID,0,VALID,24.1812,VALID,295,VALID,0.355469,
2008-12-22, 02:44:04,VALID,1006.91,VALID,0,VALID,94.9178,VALID,0,VALID,24.1812,VALID,295,VALID,0.421484,
2008-12-22, 02:45:04,VALID,1006.93,VALID,0,VALID,94.9025,VALID,0,VALID,24.1617,VALID,295,VALID,0.407813,
2008-12-22, 02:46:04,VALID,1006.94,VALID,0,VALID,94.9178,VALID,0,VALID,24.1422,VALID,311,VALID,0.336719,
2008-12-22, 02:47:04,VALID,1006.95,VALID,0,VALID,94.9101,VALID,0,VALID,24.1422,VALID,311,VALID,0.350781,
2008-12-22, 02:48:04,VALID,1006.96,VALID,0,VALID,94.9178,VALID,0,VALID,24.1227,VALID,311,VALID,0.00585938,
2008-12-22, 02:49:04,VALID,1006.94,VALID,0,VALID,94.9178,VALID,0,VALID,24.1227,VALID,311,VALID,0.0773437,
2008-12-22, 02:50:04,VALID,1006.95,VALID,0,VALID,94.9101,VALID,0,VALID,24.1422,VALID,311,VALID,0,
2008-12-22, 02:51:04,VALID,1006.95,VALID,0,VALID,94.9101,VALID,0,VALID,24.1422,VALID,311,VALID,0,
2008-12-22, 02:52:04,VALID,1006.94,VALID,0,VALID,94.9101,VALID,0,VALID,24.1422,VALID,311,VALID,0,
2008-12-22, 02:53:04,VALID,1006.91,VALID,0,VALID,94.8949,VALID,0,VALID,24.1422,VALID,311,VALID,0,
2008-12-22, 02:54:04,VALID,1006.93,VALID,0,VALID,94.9025,VALID,0,VALID,24.1227,VALID,311,VALID,0,
2008-12-22, 02:55:04,VALID,1006.94,VALID,0,VALID,94.9178,VALID,0,VALID,24.1635,VALID,311,VALID,0.00351562,
2008-12-22, 02:56:04,VALID,1006.93,VALID,0,VALID,94.9178,VALID,0,VALID,24.1422,VALID,311,VALID,0,
2008-12-22, 02:57:04,VALID,1006.92,VALID,0,VALID,94.9025,VALID,0,VALID,24.1422,VALID,311,VALID,0,
2008-12-22, 02:58:04,VALID,1006.92,VALID,0,VALID,94.9178,VALID,0,VALID,24.144,VALID,311,VALID,0,
2008-12-22, 02:59:04,VALID,1006.94,VALID,0,VALID,94.8873,VALID,0,VALID,24.1635,VALID,311,VALID,0,
2008-12-22, 03:00:04,VALID,1006.97,VALID,0,VALID,94.9025,VALID,0,VALID,24.1227,VALID,311,VALID,0,
2008-12-22, 03:01:04,VALID,1006.94,VALID,0,VALID,94.9101,VALID,0,VALID,24.1227,VALID,311,VALID,0,
2008-12-22, 03:02:04,VALID,1006.97,VALID,0,VALID,94.8873,VALID,0,VALID,24.1617,VALID,311,VALID,0,
2008-12-22, 03:03:04,VALID,1006.93,VALID,0,VALID,94.8949,VALID,0,VALID,24.144,VALID,311,VALID,0,
2008-12-22, 03:04:04,VALID,1006.94,VALID,0,VALID,94.8873,VALID,0,VALID,24.1227,VALID,311,VALID,0,
2008-12-22, 03:05:04,VALID,1006.93,VALID,0,VALID,94.8949,VALID,0,VALID,24.1227,VALID,311,VALID,0,
2008-12-22, 03:06:04,VALID,1006.91,VALID,0,VALID,94.872,VALID,0,VALID,24.1635,VALID,311,VALID,0.2625,
2008-12-22, 03:07:04,VALID,1006.94,VALID,0,VALID,94.8796,VALID,0,VALID,24.1032,VALID,311,VALID,0.275781,
2008-12-22, 03:08:04,VALID,1006.91,VALID,0,VALID,94.872,VALID,0,VALID,24.0837,VALID,311,VALID,0,
2008-12-22, 03:09:04,VALID,1006.91,VALID,0,VALID,94.8644,VALID,0,VALID,24.0837,VALID,311,VALID,0,
2008-12-22, 03:10:04,VALID,1006.91,VALID,0,VALID,94.8644,VALID,0.105969,VALID,24.0624,VALID,311,VALID,0,
2008-12-22, 03:11:04,VALID,1006.93,VALID,0,VALID,94.872,VALID,0.105969,VALID,24.0624,VALID,311,VALID,0,
2008-12-22, 03:12:04,VALID,1006.89,VALID,0,VALID,94.8796,VALID,0.105969,VALID,24.0624,VALID,311,VALID,0,
2008-12-22, 03:13:04,VALID,1006.87,VALID,0,VALID,94.8644,VALID,0,VALID,24.0624,VALID,311,VALID,0,
2008-12-22, 03:14:04,VALID,1006.9,VALID,0,VALID,94.872,VALID,0.105969,VALID,24.0429,VALID,311,VALID,0,
2008-12-22, 03:15:04,VALID,1006.87,VALID,0,VALID,94.872,VALID,0,VALID,24.0235,VALID,311,VALID,0,
2008-12-22, 03:16:04,VALID,1006.88,VALID,0,VALID,94.872,VALID,0,VALID,24.0235,VALID,311,VALID,0,
2008-12-22, 03:17:04,VALID,1006.87,VALID,0,VALID,94.8873,VALID,0,VALID,24.004,VALID,311,VALID,0,
2008-12-22, 03:18:04,VALID,1006.85,VALID,0,VALID,94.8873,VALID,0.105969,VALID,24.004,VALID,28,VALID,0,
2008-12-22, 03:19:04,VALID,1006.82,VALID,0,VALID,94.8949,VALID,0.105969,VALID,24.0253,VALID,28,VALID,0,
2008-12-22, 03:20:04,VALID,1006.81,VALID,0,VALID,94.9101,VALID,0.105969,VALID,24.004,VALID,72,VALID,0.719922,
2008-12-22, 03:21:04,VALID,1006.78,VALID,0,VALID,94.9025,VALID,0,VALID,23.9845,VALID,73,VALID,0.806641,
2008-12-22, 03:22:04,VALID,1006.75,VALID,0,VALID,94.9178,VALID,0.105969,VALID,24.004,VALID,72,VALID,0.55625,
2008-12-22, 03:23:04,VALID,1006.73,VALID,0,VALID,94.9254,VALID,0,VALID,23.9845,VALID,72,VALID,0.571875,
2008-12-22, 03:24:04,VALID,1006.71,VALID,0,VALID,94.9101,VALID,0,VALID,23.9845,VALID,72,VALID,0.240234,
2008-12-22, 03:25:04,VALID,1006.66,VALID,0,VALID,94.933,VALID,0.105969,VALID,23.965,VALID,71,VALID,0,
2008-12-22, 03:26:04,VALID,1006.62,VALID,0,VALID,94.9559,VALID,0,VALID,23.9455,VALID,70,VALID,0,
2008-12-22, 03:27:04,VALID,1006.58,VALID,0,VALID,94.9406,VALID,0.105969,VALID,23.965,VALID,70,VALID,0,
2008-12-22, 03:28:04,VALID,1006.55,VALID,0,VALID,94.9559,VALID,0.105969,VALID,23.965,VALID,70,VALID,0,
2008-12-22, 03:29:04,VALID,1006.51,VALID,0,VALID,94.9635,VALID,0.105969,VALID,23.9242,VALID,70,VALID,0,
2008-12-22, 03:30:04,VALID,1006.48,VALID,0,VALID,94.9711,VALID,0,VALID,23.9473,VALID,70,VALID,0,
2008-12-22, 03:31:04,VALID,1006.44,VALID,0,VALID,94.9711,VALID,0,VALID,23.9668,VALID,70,VALID,0,
2008-12-22, 03:32:04,VALID,1006.41,VALID,0,VALID,94.9788,VALID,0.105969,VALID,23.9455,VALID,88,VALID,0.555859,
2008-12-22, 03:33:04,VALID,1006.36,VALID,0,VALID,95.0016,VALID,0.105969,VALID,23.9455,VALID,88,VALID,0.028125,
2008-12-22, 03:34:04,VALID,1006.32,VALID,0,VALID,95.0016,VALID,0,VALID,23.9455,VALID,88,VALID,0,
2008-12-22, 03:35:04,VALID,1006.3,VALID,0,VALID,95.0093,VALID,0.105969,VALID,23.926,VALID,88,VALID,0,
2008-12-22, 03:36:04,VALID,1006.31,VALID,0,VALID,95.0093,VALID,0,VALID,23.9455,VALID,88,VALID,0,
2008-12-22, 03:37:04,VALID,1006.29,VALID,0,VALID,95.0016,VALID,0.105969,VALID,23.926,VALID,88,VALID,0,
2008-12-22, 03:38:04,VALID,1006.28,VALID,0,VALID,95.0169,VALID,0.105969,VALID,23.926,VALID,88,VALID,0,
2008-12-22, 03:39:04,VALID,1006.31,VALID,0,VALID,95.0474,VALID,0,VALID,23.9455,VALID,88,VALID,0,
2008-12-22, 03:40:04,VALID,1006.3,VALID,0,VALID,95.0321,VALID,0.105969,VALID,23.9065,VALID,88,VALID,0,
2008-12-22, 03:41:04,VALID,1006.29,VALID,0,VALID,95.0398,VALID,0.105969,VALID,23.9065,VALID,88,VALID,0,
2008-12-22, 03:42:04,VALID,1006.26,VALID,0,VALID,95.0474,VALID,0.105969,VALID,23.9065,VALID,88,VALID,0,
2008-12-22, 03:43:04,VALID,1006.24,VALID,0,VALID,95.0398,VALID,0,VALID,23.8871,VALID,88,VALID,0.374219,
2008-12-22, 03:44:04,VALID,1006.3,VALID,0,VALID,95.0474,VALID,0,VALID,23.8871,VALID,88,VALID,0.135156,
2008-12-22, 03:45:04,VALID,1006.27,VALID,0,VALID,95.0474,VALID,0.105969,VALID,23.8871,VALID,88,VALID,0.171094,
2008-12-22, 03:46:04,VALID,1006.24,VALID,0,VALID,95.0931,VALID,0.105969,VALID,23.8871,VALID,88,VALID,0,
2008-12-22, 03:47:04,VALID,1006.22,VALID,0,VALID,95.0626,VALID,0.105969,VALID,23.8871,VALID,38,VALID,0,
2008-12-22, 03:48:04,VALID,1006.21,VALID,0,VALID,95.0474,VALID,0.105969,VALID,23.9065,VALID,38,VALID,0,
2008-12-22, 03:49:04,VALID,1006.16,VALID,0,VALID,95.0779,VALID,0.105969,VALID,23.8871,VALID,38,VALID,0,
2008-12-22, 03:50:04,VALID,1006.15,VALID,0,VALID,95.0855,VALID,0.105969,VALID,23.9065,VALID,38,VALID,0,
2008-12-22, 03:51:04,VALID,1006.11,VALID,0,VALID,95.0779,VALID,0.105969,VALID,23.9065,VALID,38,VALID,0,
2008-12-22, 03:52:04,VALID,1006.11,VALID,0,VALID,95.1008,VALID,0.105969,VALID,23.9065,VALID,38,VALID,0,
2008-12-22, 03:53:04,VALID,1006.12,VALID,0,VALID,95.1008,VALID,0.105969,VALID,23.9473,VALID,38,VALID,0,
2008-12-22, 03:54:04,VALID,1006.13,VALID,0,VALID,95.1084,VALID,0,VALID,23.8871,VALID,38,VALID,0,
2008-12-22, 03:55:04,VALID,1006.14,VALID,0,VALID,95.116,VALID,0,VALID,23.8889,VALID,38,VALID,0,